Home   Weather   Tempe   Past weeks

Flag for USA Past Weather in Tempe, Arizona, USA — Yesterday and Last 2 Weeks

Now
55 °F

Light rain. Fog.


Feels Like: 54 °F
Forecast: 52 / 63 °F
Wind: 6 mph from West

Location: Phoenix Sky Harbor International Airport

Current Time: Feb 27, 2017 at 8:39:56 pm

Latest Report: Feb 27, 2017 at 7:51 pm


Visibility: 6 mi

Pressure: 29.86 "Hg

Humidity: 87%

Dew Point: 51 °F

Location of TempeLocation

Past Weather in Tempe — Graph

°F

Tempe Temperature Yesterday

Maximum temperature yesterday: 68 °F (at 2:51 pm)
Minimum temperature yesterday: 52 °F (at 7:51 am)
Average temperature yesterday: 59 °F

High & Low Weather Summary for the Past Weeks

 TemperatureHumidityPressure
High76 °F (Feb 22, 1:51 pm)93% (Feb 19, 6:51 am)30.29 "Hg (Feb 19, 6:51 am)
Low43 °F (Feb 24, 6:51 am)16% (Feb 25, 3:51 pm)29.51 "Hg (Feb 18, 2:51 pm)
Average61 °F50%29.94 "Hg
* Reported Feb 12 6:51 pm — Feb 27 6:51 pm, Tempe, Weather by CustomWeather, © 2017

Note: Actual official high and low records may vary slightly from our data, if they occured in-between our weather recording intervals... More about our weather records

Advertising

Tempe Weather History for the Previous 24 Hours

Scroll right to see more
 ConditionsComfort  
Time TempWeatherWind HumidityBarometerVisibility
6:51 pm
Mon, Feb 27
56 °FOvercast.9 mph75%29.84 "Hg10 mi
5:51 pm57 °FLight rain. Cloudy.10 mph74%29.83 "Hg10 mi
4:51 pm59 °FMostly cloudy.10 mph62%29.83 "Hg10 mi
3:51 pm63 °FCloudy.7 mph47%29.81 "Hg10 mi
2:51 pm64 °FMostly cloudy.10 mph43%29.83 "Hg10 mi
1:51 pm63 °FMostly cloudy.3 mph43%29.86 "Hg10 mi
12:51 pm64 °FMostly cloudy.No wind41%29.89 "Hg10 mi
11:51 am60 °FMostly cloudy.9 mph46%29.93 "Hg10 mi
10:51 am58 °FMostly cloudy.8 mph50%29.94 "Hg10 mi
9:51 am55 °FCloudy.8 mph53%29.96 "Hg10 mi
8:51 am52 °FPartly sunny.9 mph57%29.95 "Hg10 mi
7:51 am49 °FPartly sunny.8 mph64%29.94 "Hg10 mi
6:51 am48 °FPassing clouds.9 mph66%29.92 "Hg10 mi
5:51 am50 °FPassing clouds.8 mph61%29.91 "Hg10 mi
4:51 am51 °FPassing clouds.8 mph59%29.91 "Hg10 mi
3:51 am51 °FPassing clouds.5 mph59%29.90 "Hg10 mi
2:51 am52 °FPassing clouds.7 mph57%29.90 "Hg10 mi
1:51 am52 °FPassing clouds.5 mph59%29.89 "Hg10 mi
12:51 am54 °FPassing clouds.6 mph55%29.89 "Hg10 mi
11:51 pm
Sun, Feb 26
55 °FPassing clouds.No wind57%29.89 "Hg10 mi
10:51 pm56 °FPassing clouds.3 mph51%29.88 "Hg10 mi
9:51 pm57 °FPassing clouds.3 mph49%29.88 "Hg10 mi
8:51 pm59 °FPassing clouds.3 mph46%29.86 "Hg10 mi
Weather by CustomWeather, © 2017

See weather overviewHow to use our weather pages